Location: Unspecified
(0.0000°N, 0.0000°E)
Time: 20:18:20
(UTC+00:00)

SICH 2 - Pass Details

Date: 06 June 2023
Orbit: 674 x 694 km, 97.8° (Epoch: 24 September)

Event Time Altitude Azimuth Distance (km) Brightness Sun altitude
Exits shadow 19:36:46 - 192° (SSW) 2,995 ? -22.5°
Reaches altitude 10° 19:39:14 10° 205° (SSW) 2,131 ? -23.1°
Maximum altitude 19:42:55 23° 258° (WSW) 1,422 ? -23.9°
Drops below altitude 10° 19:46:35 10° 311° (NW) 2,113 ? -24.7°
Sets 19:49:11 0° 325° (NW) 3,021 ? -25.3°
